Location: Course
(50.6290°N, 1.8431°E)
Time: 22:10:34
(UTC+00:00)

Daily predictions for brighter satellites

Satellite Brightness Start Highest point End
(mag) Time Altitude Azimuth Time Altitude Azimuth Time Altitude Azimuth
Cosmos 2098 Rocket 3.5 16:19:30 10° SSE 16:23:47 52° E 16:28:47 10° NNE
USA 290 2.5 16:21:47 10° NNW 16:25:03 74° WSW 16:28:17 10° SSE
Cosmos 2208 Rocket 4.4 16:20:24 10° NNW 16:25:34 70° WSW 16:30:43 10° SSE
Cosmos 1782 2.6 16:23:09 10° S 16:26:41 63° E 16:30:15 10° NNE
Cosmos 1933 4.4 16:24:06 10° SE 16:27:08 23° E 16:30:11 10° NE
Cosmos 2227 Rocket 2.3 16:23:27 10° NNW 16:29:01 56° NE 16:34:34 10° SE
Meteor 1-28 Rocket 3.6 16:26:44 10° NNE 16:29:49 34° E 16:32:53 10° SSE
Cosmos 2369 Rocket 4.1 16:28:09 10° W 16:32:23 21° NW 16:36:40 10° NNE
CBERS-1 4.0 16:27:55 10° SSE 16:33:00 71° ENE 16:38:06 10° NNW
CENTAUR R/B 3.4 16:34:58 10° W 16:40:47 44° NNW 16:48:05 10° NE
Cosmos 1697 Rocket 3.1 16:36:26 10° S 16:41:43 44° ESE 16:47:02 10° NE
Cosmos 1626 Rocket 4.2 16:38:28 10° NNW 16:42:44 60° W 16:46:57 10° S
Cosmos 2360 4.3 16:37:32 10° SSW 16:43:16 87° ESE 16:49:02 10° NNE
CZ-2D R/B 3.7 16:42:10 10° SE 16:44:50 26° ENE 16:47:32 10° N
Cosmos 1538 Rocket 4.5 16:40:06 10° NNW 16:45:03 39° NE 16:50:01 10° SE
Cosmos 2266 Rocket 3.9 16:42:24 10° N 16:48:34 70° ENE 16:54:35 10° SSE
Cosmos 1656 4.1 16:45:28 10° SW 16:51:05 66° WNW 16:56:47 10° NNE
Cosmos 2228 4.3 16:48:04 10° SW 16:52:06 41° WNW 16:56:09 10° N
Cosmos 1606 Rocket 4.0 16:48:52 10° SSE 16:53:00 41° E 16:57:12 10° NNE
Cosmos 1503 Rocket 4.0 16:50:01 10° SSW 16:55:14 76° ESE 17:00:26 10° NNE
Lacrosse 5 rocket 2.2 16:53:00 10° WNW 16:56:21 30° N 16:58:51 15° NE
UNK 3.9 16:54:17 10° NNE 16:58:45 50° E 17:03:10 10° S
CZ-4C R/B 3.5 16:52:00 10° NW 16:58:53 66° SW 17:07:23 10° SSE
Cosmos 1484 Rocket 3.4 16:56:39 10° S 17:00:05 54° W 17:03:31 10° NNW
Cosmos 1743 3.4 16:57:54 10° NNW 17:01:03 46° W 17:04:09 10° S
Radarsat 4.5 16:56:02 10° SSE 17:01:10 69° ENE 17:06:20 10° N
Thor Agena Rocket 3.5 16:56:07 10° SSE 17:01:18 88° ENE 17:06:29 10° NNW
Cosmos 1544 Rocket 4.2 16:58:05 10° SSW 17:02:25 57° WNW 17:06:49 10° N
IRS-P3 4.3 16:58:58 10° SE 17:04:02 47° ENE 17:09:07 10° N
NOSS 2-3 (D) 3.9 17:01:22 10° S 17:04:45 35° ESE 17:07:02 18° ENE
NOSS 2-3 (E) 3.8 17:01:58 10° SSW 17:05:23 38° SE 17:07:43 18° ENE
Cosmos 1354 Rocket 4.0 17:01:03 10° S 17:06:16 67° ESE 17:11:29 10° NNE
IGS 5A 4.0 17:03:38 10° S 17:07:33 60° W 17:11:31 10° NNW
NOSS 2-2 (D) 4.2 17:05:09 10° W 17:07:56 28° NW 17:10:11 13° NNE
Cosmos 1777 Rocket 4.2 17:03:14 10° SSW 17:08:29 76° WNW 17:13:45 10° NNE
Cosmos 2151 3.5 17:05:02 10° NNW 17:09:08 60° W 17:13:14 10° S
Cosmos-2242 4.2 17:06:44 10° SE 17:09:59 22° E 17:11:24 18° ENE
USA 238 DEB 4.1 17:04:35 10° S 17:10:10 39° ESE 17:14:48 16° ENE
USA 238 4.1 17:04:42 10° S 17:10:18 39° ESE 17:14:54 17° ENE
MOS 1 Rocket 3.6 17:06:03 10° SSE 17:10:56 55° ENE 17:16:05 10° N
Gbstr 26 Del rocket 3.0 17:10:07 10° SW 17:14:10 56° SSE 17:16:29 21° E
Cosmos 1898 Rocket 4.5 17:10:00 10° SSE 17:14:11 26° E 17:16:32 19° ENE
Cosmos 1726 Rocket 3.8 17:11:02 10° S 17:15:32 52° E 17:19:58 10° NNE
ERS-1 4.4 17:12:05 10° SSE 17:17:01 66° ENE 17:21:57 10° N
USA 215 3.6 17:12:07 16° ENE 17:17:15 53° N 17:23:35 10° W
Cosmos 2082 4.0 17:12:01 10° NNW 17:17:31 45° NE 17:23:00 10° SE
AQUARIUS 4.1 17:14:10 10° SSE 17:18:30 63° ENE 17:22:53 10° N
SMAP 3.2 17:15:11 10° S 17:19:50 78° WSW 17:24:32 10° NNW
Cosmos 1805 3.8 17:17:15 10° NNE 17:20:10 27° ENE 17:23:04 10° SE
Cosmos 2297 Rocket 4.1 17:16:08 10° NW 17:21:08 33° WSW 17:26:06 10° SSW
GEOS 3 Rocket 3.8 17:19:09 18° NE 17:23:12 59° SE 17:28:30 10° SSW
Landsat 7 3.7 17:19:18 10° SSE 17:23:58 89° W 17:28:39 10° NNW
Cosmos 923 Rocket 4.4 17:21:43 10° NNW 17:26:35 38° NE 17:31:24 10° SE
YAOGAN 1 3.2 17:23:01 10° SE 17:26:47 32° ENE 17:30:35 10° N
Cosmos 1937 Rocket 4.4 17:25:30 10° SSE 17:29:44 26° E 17:30:51 24° E
Okean 1-7 Rocket 4.4 17:25:47 10° NNW 17:30:04 53° W 17:34:18 10° S
SL-16 R/B 4.2 17:29:20 10° ESE 17:29:26 10° ESE 17:29:26 10° ESE
Cosmos 990 Rocket 3.9 17:28:30 10° SSW 17:33:38 88° WNW 17:38:14 13° NNE
Cosmos 1461 3.7 17:30:12 10° WSW 17:33:56 41° NW 17:36:23 19° NNE
SL-16 R/B 3.2 17:28:44 10° N 17:34:48 55° WNW 17:40:47 10° SW
CZ-2D R/B 3.7 17:30:53 10° SE 17:34:49 42° ENE 17:38:43 10° N
SKYMED 2 4.1 17:35:14 26° NE 17:37:00 38° E 17:41:02 10° SSE
COSMOS 2455 4.1 17:33:57 10° SSE 17:38:17 21° ESE 17:38:36 21° ESE
Okean 1 4.1 17:35:59 10° SSE 17:38:21 27° ESE 17:38:21 27° ESE
Cosmos 1844 Rocket 3.4 17:39:24 10° NNW 17:44:30 33° NE 17:45:49 29° ENE
Cosmos 2219 3.1 17:39:00 10° NNW 17:44:46 79° ENE 17:50:32 10° SSE
SJ-6F 4.4 17:41:12 10° SSE 17:45:11 83° WSW 17:49:15 10° NNW
Cosmos 1980 Rocket 2.2 17:40:27 10° SSW 17:46:00 63° ESE 17:49:21 25° NE
Cosmos 1953 Rocket 3.6 17:42:36 10° NNW 17:47:05 81° W 17:51:31 10° S
Aureole 1 Rocket 3.5 17:43:23 10° S 17:47:59 64° ESE 17:51:47 21° NNE
Meteor 1-26 Rocket 4.2 17:44:08 10° SSE 17:49:18 50° E 17:52:48 20° NNE
PSLV R/B 3.6 17:50:00 37° ESE 17:50:55 44° ENE 17:54:48 10° N
Cosmos 2263 Rocket 2.6 17:47:17 10° NNW 17:52:55 67° WSW 17:58:34 10° SSE
ARIANE 5 R/B 3.3 17:48:02 10° S 17:52:59 54° W 17:58:03 10° NNW
SL-19 R/B 4.3 17:48:33 10° SE 17:53:53 56° ENE 17:59:31 10° N
NOSS 3-2 (A) 4.5 17:51:50 10° W 17:56:52 34° NNW 18:00:32 20° NNE
BREEZE-M DEB (TANK) 3.9 17:54:24 10° SSW 17:57:13 22° SSE 17:57:13 22° SSE
COSMO-SKYMED 1 3.1 17:59:08 36° SE 17:59:08 36° SE 18:02:13 10° SSE
Cosmos 1680 Rocket 3.6 17:53:14 10° NNW 17:58:21 49° ENE 18:00:24 32° ESE
BREEZE-M DEB (TANK) 4.0 17:55:44 10° W 17:59:17 70° S 18:06:53 19° ESE
NOSS 3-2 (C) 3.9 17:54:29 10° WSW 17:59:38 50° NW 18:03:20 23° NNE
NOAA 15 4.5 17:55:57 10° SSE 18:01:13 74° ENE 18:06:30 10° NNW
Cosmos 1076 Rocket 4.3 17:57:28 10° NNW 18:01:40 52° W 18:05:52 10° S
Meteor 2-10 4.2 17:56:30 10° NNW 18:01:55 82° W 18:07:29 10° S
NOAA 6 4.0 17:58:15 10° SE 18:03:11 53° ENE 18:08:09 10° N
Cosmos 2369 3.9 17:58:12 10° S 18:03:42 51° ESE 18:05:20 39° ENE
Cosmos 1943 Rocket 4.3 18:03:50 10° N 18:04:10 10° NNE 18:04:10 10° NNE
Resurs 01 Rocket 3.9 18:11:53 12° N 18:11:53 12° N 18:12:12 10° N
USA 81 4.2 18:05:48 10° N 18:11:04 77° W 18:16:19 10° S
Cosmos 44 Rocket 3.6 18:06:34 10° NW 18:11:33 49° NE 18:11:53 48° NE
Cosmos 2227 Rocket 4.2 18:07:56 10° NW 18:12:45 30° WSW 18:17:34 10° SSW
SPOT 1/Viking Rocket 3.9 18:11:52 10° S 18:17:02 67° WSW 18:22:15 10° NNW
Cosmos 2058 Rocket 3.3 18:19:51 10° SSW 18:24:18 68° WNW 18:26:26 30° N
Cosmos 1697 Rocket 3.8 18:20:31 10° WSW 18:25:45 39° NW 18:29:16 19° N
OceanSat 1 rocket 4.5 18:21:54 10° SSE 18:26:38 87° ENE 18:31:22 10° NNW
USA 281 4.4 18:28:12 24° NNE 18:28:12 24° NNE 18:32:13 10° NNW
CENTAUR R/B 4.0 18:27:15 10° WNW 18:33:18 31° N 18:35:36 27° NNE
Cosmos 2333 Rocket 4.3 18:28:49 10° SSE 18:29:35 13° SSE 18:29:35 13° SSE
Lacrosse 5 rocket 2.9 18:30:34 10° NW 18:32:26 24° NW 18:32:26 24° NW
Meteor 2-11 Rocket 4.3 18:27:47 10° N 18:34:01 88° E 18:40:10 10° S
Cosmos 2278 Rocket 4.4 18:31:40 10° N 18:32:43 12° N 18:32:43 12° N
NOSS 2-3 (C) 4.1 18:32:02 10° WSW 18:34:52 42° WNW 18:34:52 42° WNW
Meteor 1-14 Rocket 4.1 18:32:26 10° N 18:38:14 74° ENE 18:39:09 61° SE
Resurs 1-3 4.4 18:39:47 10° S 18:43:56 49° W 18:48:09 10° NNW
Cosmos-2242 4.1 18:42:41 10° SSW 18:46:45 43° WNW 18:47:46 36° NW
Cosmos 1844 3.8 18:49:58 10° NNW 18:54:37 61° NNW 18:54:37 61° NNW
Cosmos 1898 Rocket 4.1 18:50:48 10° SW 18:55:50 53° WNW 18:56:44 47° NNW
USA 215 3.3 18:59:28 59° NNE 18:59:47 59° NNE 19:06:13 10° WNW
Cosmos 2112 Rocket 4.2 18:54:52 10° NNW 18:59:47 68° W 18:59:47 68° W
USA 238 DEB 3.9 18:54:39 10° WSW 19:00:49 60° NW 19:02:15 50° N
USA 238 3.9 18:54:45 10° WSW 19:00:56 61° NW 19:02:21 50° N
Cosmos 1553 Rocket 4.4 18:55:06 10° SSW 19:01:13 62° WNW 19:07:28 10° N
YAOGAN 1 4.2 18:58:48 10° SSW 19:02:37 32° W 19:06:27 10° NNW
BREEZE-M DEB (TANK) 4.1 19:01:44 10° SW 19:06:16 38° SSW 19:06:16 38° SSW
Cosmos 1937 Rocket 4.1 19:06:14 10° SW 19:10:58 52° WNW 19:10:58 52° WNW
Meteor 2-6 Rocket 4.4 19:05:55 10° SSW 19:11:37 69° WNW 19:11:37 69° WNW
Cosmos 2227 4.5 19:07:16 10° NW 19:12:30 63° W 19:12:30 63° W
SL-16 R/B 3.7 19:08:57 10° SSW 19:11:20 26° SSW 19:11:20 26° SSW
Cosmos 1745 Rocket 4.2 19:09:55 10° NNW 19:16:02 66° W 19:22:05 10° S
COSMOS 2455 3.4 19:17:26 10° SW 19:21:46 50° SW 19:21:46 50° SW
Cosmos 1844 Rocket 3.5 19:23:09 10° NW 19:27:31 48° WNW 19:27:31 48° WNW
Cosmos 1980 Rocket 3.7 19:25:27 10° WSW 19:30:24 30° NW 19:31:07 29° NNW
CENTAUR R/B 4.3 20:18:45 10° NW 20:22:42 30° NNW 20:22:42 30° NNW
